EW5195 Weather Reports


Display with metric or nautical units.
time (UTC)temp
F
wind
direction
speed
MPH
gust
MPH
rain 1hr
in
rain 24hr
in
rain mn
in
humidity
%
barometer
mb
20260901204053 93 0 0.0 0.0 0.00 0.00 0.00 57 1016.4
20260901203551 92 0 0.0 0.0 0.00 0.00 0.00 56 1016.4
20260901203122 92 0 0.0 0.0 0.00 0.00 0.00 61 1016.5
20260901202549 93 0 0.0 0.0 0.00 0.00 0.00 59 1016.6
20260901202050 93 0 0.0 0.0 0.00 0.00 0.00 61 1016.5
20260901201605 93 0 0.0 0.0 0.00 0.00 0.00 58 1016.5
20260901201051 93 0 0.0 0.0 0.00 0.00 0.00 58 1016.6
20260901200552 92 0 0.0 0.0 0.00 0.00 0.00 59 1016.7
20260901200107 93 0 0.0 0.0 0.00 0.00 0.00 57 1016.7
20260901195551 94 0 0.0 0.0 0.00 0.00 0.00 54 1016.7
20260901195054 93 0 0.0 0.0 0.00 0.00 0.00 52 1016.8
20260901194607 94 0 0.0 0.0 0.00 0.00 0.00 55 1016.9
20260901194051 94 0 0.0 0.0 0.00 0.00 0.00 54 1016.8
20260901193551 95 0 0.0 0.0 0.00 0.00 0.00 55 1017.0
20260901193103 94 0 0.0 0.0 0.00 0.00 0.00 60 1017.1
20260901192554 95 0 0.0 0.0 0.00 0.00 0.00 58 1016.9
20260901192051 95 0 0.0 0.0 0.00 0.00 0.00 54 1017.1
20260901191623 95 0 0.0 0.0 0.00 0.00 0.00 61 1017.1
20260901191050 94 0 0.0 0.0 0.00 0.00 0.00 54 1017.1
20260901190547 95 0 0.0 0.0 0.00 0.00 0.00 51 1017.2
20260901190105 95 0 0.0 0.0 0.00 0.00 0.00 57 1017.2
20260901185554 94 0 0.0 0.0 0.00 0.00 0.00 58 1017.4
20260901185051 93 0 0.0 0.0 0.00 0.00 0.00 56 1017.4
20260901184602 93 0 0.0 0.0 0.00 0.00 0.00 53 1017.5
20260901184051 92 0 0.0 0.0 0.00 0.00 0.00 62 1017.6
20260901183550 92 0 0.0 0.0 0.00 0.00 0.00 58 1017.5
20260901183106 93 0 0.0 0.0 0.00 0.00 0.00 54 1017.6
20260901182552 94 0 0.0 0.0 0.00 0.00 0.00 53 1017.6
20260901182052 94 0 0.0 0.0 0.00 0.00 0.00 54 1017.4
20260901181606 93 0 0.0 0.0 0.00 0.00 0.00 52 1017.4
20260901181052 93 0 0.0 0.0 0.00 0.00 0.00 51 1017.4
20260901180551 94 0 0.0 0.0 0.00 0.00 0.00 59 1017.4
20260901180108 94 0 0.0 0.0 0.00 0.00 0.00 54 1017.3
20260901175551 93 0 0.0 0.0 0.00 0.00 0.00 57 1017.4
20260901175050 93 0 0.0 0.0 0.00 0.00 0.00 52 1017.5
20260901174603 93 0 0.0 0.0 0.00 0.00 0.00 52 1017.5
20260901174051 93 0 0.0 0.0 0.00 0.00 0.00 56 1017.6
20260901173552 93 0 0.0 0.0 0.00 0.00 0.00 58 1017.6
20260901173101 93 0 0.0 0.0 0.00 0.00 0.00 58 1017.5
20260901172552 93 0 0.0 0.0 0.00 0.00 0.00 57 1017.6
20260901172052 92 0 0.0 0.0 0.00 0.00 0.00 61 1017.6
20260901171605 92 0 0.0 0.0 0.00 0.00 0.00 57 1017.6
20260901171052 92 0 0.0 0.0 0.00 0.00 0.00 56 1017.7
20260901170551 91 0 0.0 0.0 0.00 0.00 0.00 56 1017.7
20260901170107 92 0 0.0 0.0 0.00 0.00 0.00 57 1017.7
20260901165550 92 0 0.0 0.0 0.00 0.00 0.00 62 1017.8
20260901165050 93 0 0.0 0.0 0.00 0.00 0.00 60 1017.8
20260901164606 92 0 0.0 0.0 0.00 0.00 0.00 59 1017.9
20260901164050 91 0 0.0 0.0 0.00 0.00 0.00 58 1018.0
20260901163550 91 0 0.0 0.0 0.00 0.00 0.00 60 1018.1
20260901163105 92 0 0.0 0.0 0.00 0.00 0.00 60 1018.3
20260901162550 92 0 0.0 0.0 0.00 0.00 0.00 60 1018.2
20260901162052 91 0 0.0 0.0 0.00 0.00 0.00 61 1018.4
20260901161606 91 0 0.0 0.0 0.00 0.00 0.00 61 1018.5
20260901161050 92 0 0.0 0.0 0.00 0.00 0.00 58 1018.4
20260901160548 91 0 0.0 0.0 0.00 0.00 0.00 65 1018.5
20260901160107 90 0 0.0 0.0 0.00 0.00 0.00 63 1018.5
20260901155549 91 0 0.0 0.0 0.00 0.00 0.00 70 1018.5
20260901155050 90 0 0.0 0.0 0.00 0.00 0.00 67 1018.5
20260901154605 90 0 0.0 0.0 0.00 0.00 0.00 67 1018.6
20260901154050 90 0 0.0 0.0 0.00 0.00 0.00 68 1018.6
20260901153551 91 0 0.0 0.0 0.00 0.00 0.00 67 1018.7
20260901153118 90 0 0.0 0.0 0.00 0.00 0.00 68 1018.7
20260901152550 90 0 0.0 0.0 0.00 0.00 0.00 69 1018.7
20260901152050 90 0 0.0 0.0 0.00 0.00 0.00 71 1018.8
20260901151602 89 0 0.0 0.0 0.00 0.00 0.00 69 1018.9
20260901151051 89 0 0.0 0.0 0.00 0.00 0.00 70 1018.9
20260901150550 89 0 0.0 0.0 0.00 0.00 0.00 74 1019.1
20260901150107 89 0 0.0 0.0 0.00 0.00 0.00 72 1019.1
20260901145551 89 0 0.0 0.0 0.00 0.00 0.00 72 1019.1
20260901145050 88 0 0.0 0.0 0.00 0.00 0.00 71 1019.1
20260901144608 88 0 0.0 0.0 0.00 0.00 0.00 73 1019.2
20260901144050 87 0 0.0 0.0 0.00 0.00 0.00 75 1019.2
20260901143550 87 0 0.0 0.0 0.00 0.00 0.00 73 1019.4
20260901143103 87 0 0.0 0.0 0.00 0.00 0.00 75 1019.2
20260901142549 87 0 0.0 0.0 0.00 0.00 0.00 77 1019.2
20260901142050 86 0 0.0 0.0 0.00 0.00 0.00 77 1019.4
20260901141606 85 0 0.0 0.0 0.00 0.00 0.00 77 1019.4
20260901141051 85 0 0.0 0.0 0.00 0.00 0.00 77 1019.3
20260901140553 85 0 0.0 0.0 0.00 0.00 0.00 78 1019.3
20260901140111 84 0 0.0 0.0 0.00 0.00 0.00 79 1019.2
20260901135551 84 0 0.0 0.0 0.00 0.00 0.00 80 1019.2
20260901135051 83 0 0.0 0.0 0.00 0.00 0.00 80 1019.1
20260901134609 83 0 0.0 0.0 0.00 0.00 0.00 83 1019.1
20260901134050 82 0 0.0 0.0 0.00 0.00 0.00 82 1019.2
20260901133549 81 0 0.0 0.0 0.00 0.00 0.00 84 1019.3
20260901133110 81 0 0.0 0.0 0.00 0.00 0.00 87 1019.2
20260901132552 80 0 0.0 0.0 0.00 0.00 0.00 86 1019.2
20260901132051 79 0 0.0 0.0 0.00 0.00 0.00 88 1019.1
20260901131602 78 0 0.0 0.0 0.00 0.00 0.00 89 1019.1
20260901131052 77 0 0.0 0.0 0.00 0.00 0.00 90 1019.1
20260901130549 77 0 0.0 0.0 0.00 0.00 0.00 91 1019.2
20260901130109 76 0 0.0 0.0 0.00 0.00 0.00 91 1019.2
20260901125550 76 0 0.0 0.0 0.00 0.00 0.00 92 1019.3
20260901125052 76 0 0.0 0.0 0.00 0.00 0.00 91 1019.4
20260901124604 76 0 0.0 0.0 0.00 0.00 0.00 92 1019.5
20260901124052 75 0 0.0 0.0 0.00 0.00 0.00 92 1019.5
20260901123550 75 0 0.0 0.0 0.00 0.00 0.00 92 1019.4
20260901123149 75 0 0.0 0.0 0.00 0.00 0.00 92 1019.5
20260901122550 75 0 0.0 0.0 0.00 0.00 0.00 92 1019.3
20260901122051 75 0 0.0 0.0 0.00 0.00 0.00 92 1019.4
20260901121626 75 0 0.0 0.0 0.00 0.00 0.00 93 1019.4
20260901121050 74 0 0.0 0.0 0.00 0.00 0.00 93 1019.4
20260901120551 74 0 0.0 0.0 0.00 0.00 0.00 94 1019.4
20260901120111 74 0 0.0 0.0 0.00 0.00 0.00 94 1019.4
20260901115550 73 0 0.0 0.0 0.00 0.00 0.00 94 1019.2
20260901115050 73 0 0.0 0.0 0.00 0.00 0.00 94 1019.1
20260901114611 73 0 0.0 0.0 0.00 0.00 0.00 94 1019.1
20260901114049 72 0 0.0 0.0 0.00 0.00 0.00 94 1019.0
20260901113551 72 0 0.0 0.0 0.00 0.00 0.00 94 1018.9
20260901113107 72 0 0.0 0.0 0.00 0.00 0.00 94 1018.8
20260901112550 72 0 0.0 0.0 0.00 0.00 0.00 94 1018.8
20260901112054 72 0 0.0 0.0 0.00 0.00 0.00 94 1018.7
20260901111606 72 0 0.0 0.0 0.00 0.00 0.00 94 1018.7
20260901111051 72 0 0.0 0.0 0.00 0.00 0.00 94 1018.7
20260901110549 72 0 0.0 0.0 0.00 0.00 0.00 94 1018.7
20260901110105 72 0 0.0 0.0 0.00 0.00 0.00 94 1018.5
20260901105550 72 0 0.0 0.0 0.00 0.00 0.00 94 1018.6
20260901105054 72 0 0.0 0.0 0.00 0.00 0.00 94 1018.5
20260901104609 72 0 0.0 0.0 0.00 0.00 0.00 94 1018.6
20260901104052 72 0 0.0 0.0 0.00 0.00 0.00 94 1018.7
20260901103549 72 0 0.0 0.0 0.00 0.00 0.00 93 1018.6
20260901103105 72 0 0.0 0.0 0.00 0.00 0.00 93 1018.6
20260901102550 71 0 0.0 0.0 0.00 0.00 0.00 93 1018.6
20260901102051 72 0 0.0 0.0 0.00 0.00 0.00 93 1018.5
20260901101612 72 0 0.0 0.0 0.00 0.00 0.00 93 1018.6
20260901101053 72 0 0.0 0.0 0.00 0.00 0.00 93 1018.5
20260901100554 72 0 0.0 0.0 0.00 0.00 0.00 93 1018.4
20260901100106 72 0 0.0 0.0 0.00 0.00 0.00 93 1018.5
20260901095550 72 0 0.0 0.0 0.00 0.00 0.00 94 1018.4
20260901095049 72 0 0.0 0.0 0.00 0.00 0.00 93 1018.5
20260901094604 72 0 0.0 0.0 0.00 0.00 0.00 94 1018.6
20260901094050 72 0 0.0 0.0 0.00 0.00 0.00 94 1018.6
20260901093554 72 0 0.0 0.0 0.00 0.00 0.00 94 1018.6
20260901093104 72 0 0.0 0.0 0.00 0.00 0.00 93 1018.6
20260901092551 72 0 0.0 0.0 0.00 0.00 0.00 93 1018.5
20260901092052 72 0 0.0 0.0 0.00 0.00 0.00 93 1018.6
20260901091628 71 0 0.0 0.0 0.00 0.00 0.00 93 1018.6
20260901091050 71 0 0.0 0.0 0.00 0.00 0.00 93 1018.4
20260901090549 72 0 0.0 0.0 0.00 0.00 0.00 93 1018.4
20260901090105 72 0 0.0 0.0 0.00 0.00 0.00 93 1018.3
20260901085550 72 0 0.0 0.0 0.00 0.00 0.00 93 1018.5
20260901085051 72 0 0.0 0.0 0.00 0.00 0.00 93 1018.3
20260901084605 72 0 0.0 0.0 0.00 0.00 0.00 93 1018.4
20260901084052 72 0 0.0 0.0 0.00 0.00 0.00 93 1018.2
20260901083550 72 0 0.0 0.0 0.00 0.00 0.00 93 1018.4
20260901083100 72 0 0.0 0.0 0.00 0.00 0.00 93 1018.5
20260901082550 72 0 0.0 0.0 0.00 0.00 0.00 93 1018.5
20260901082049 72 0 0.0 0.0 0.00 0.00 0.00 93 1018.5
20260901081600 72 0 0.0 0.0 0.00 0.00 0.00 93 1018.6
20260901081049 72 0 0.0 0.0 0.00 0.00 0.00 93 1018.6
20260901080550 72 0 0.0 0.0 0.00 0.00 0.00 93 1018.6
20260901080104 72 0 0.0 0.0 0.00 0.00 0.00 93 1018.6
20260901075551 72 0 0.0 0.0 0.00 0.00 0.00 93 1018.6
20260901075113 72 0 0.0 0.0 0.00 0.00 0.00 93 1018.6
20260901074619 72 0 0.0 0.0 0.00 0.00 0.00 93 1018.7
20260901074050 72 0 0.0 0.0 0.00 0.00 0.00 93 1018.7
20260901073555 72 0 0.0 0.0 0.00 0.00 0.00 93 1018.8
20260901073110 72 0 0.0 0.0 0.00 0.00 0.00 93 1018.7
20260901072550 73 0 0.0 0.0 0.00 0.00 0.00 93 1018.8
20260901072052 73 0 0.0 0.0 0.00 0.00 0.00 93 1018.8
20260901071605 73 0 0.0 0.0 0.00 0.00 0.00 93 1018.8
20260901071052 73 0 0.0 0.0 0.00 0.00 0.00 92 1019.0
20260901070552 73 0 0.0 0.0 0.00 0.00 0.00 92 1018.9
20260901070113 73 0 0.0 0.0 0.00 0.00 0.00 92 1018.9
20260901065554 73 0 0.0 0.0 0.00 0.00 0.00 92 1018.9
20260901065053 73 0 0.0 0.0 0.00 0.00 0.00 92 1019.0
20260901064606 73 0 0.0 0.0 0.00 0.00 0.00 92 1018.9
20260901064051 73 0 0.0 0.0 0.00 0.00 0.00 92 1018.9
20260901063552 73 0 0.0 0.0 0.00 0.00 0.00 92 1019.1
20260901063133 73 0 0.0 0.0 0.00 0.00 0.00 92 1019.1
20260901062551 73 0 0.0 0.0 0.00 0.00 0.00 92 1019.1
20260901062052 73 0 0.0 0.0 0.00 0.00 0.00 92 1019.2
20260901061601 73 0 0.0 0.0 0.00 0.00 0.00 92 1019.2
20260901061051 73 0 0.0 0.0 0.00 0.00 0.00 92 1019.3
20260901060555 73 0 0.0 0.0 0.00 0.00 0.00 92 1019.4
20260901060109 73 0 0.0 0.0 0.00 0.00 0.00 92 1019.5
20260901055549 74 0 0.0 0.0 0.00 0.00 0.00 92 1019.4
20260901055051 74 0 0.0 0.0 0.00 0.00 0.00 92 1019.4
20260901054609 74 0 0.0 0.0 0.00 0.00 0.00 92 1019.5
20260901054049 74 0 0.0 0.0 0.00 0.00 0.00 92 1019.6
20260901053549 74 0 0.0 0.0 0.00 0.00 0.00 92 1019.5
20260901053125 74 0 0.0 0.0 0.00 0.00 0.00 92 1019.6
20260901052552 74 0 0.0 0.0 0.00 0.00 0.00 92 1019.6
20260901052050 74 0 0.0 0.0 0.00 0.00 0.00 92 1019.6
20260901051616 74 0 0.0 0.0 0.00 0.00 0.00 92 1019.6
20260901051050 74 0 0.0 0.0 0.00 0.00 0.00 92 1019.7
20260901050549 74 0 0.0 0.0 0.00 0.00 0.00 92 1019.7
20260901050109 74 0 0.0 0.0 0.00 0.00 0.00 92 1019.7
20260901045659 74 0 0.0 0.0 0.00 0.00 0.00 92 1019.7
20260901045052 74 0 0.0 0.0 0.00 0.00 0.00 91 1019.7
20260901044602 74 0 0.0 0.0 0.00 0.00 0.00 91 1019.7
20260901044050 74 0 0.0 0.0 0.00 0.00 0.00 91 1019.8
20260901043552 74 0 0.0 0.0 0.00 0.00 0.00 91 1019.8
20260901043107 74 0 0.0 0.0 0.00 0.00 0.00 91 1019.7
20260901042553 74 0 0.0 0.0 0.00 0.00 0.00 91 1019.8
20260901042051 74 0 0.0 0.0 0.00 0.00 0.00 91 1019.7
20260901041612 74 0 0.0 0.0 0.00 0.00 0.00 91 1019.6
20260901041052 74 0 0.0 0.0 0.00 0.00 0.00 91 1019.6
20260901040550 74 0 0.0 0.0 0.00 0.00 0.00 91 1019.6
20260901035549 75 0 0.0 0.0 0.00 0.00 0.00 91 1019.6
20260901035049 75 0 0.0 0.0 0.00 0.00 0.00 90 1019.7
20260901034606 75 0 0.0 0.0 0.00 0.00 0.00 90 1019.8
20260901034051 75 0 0.0 0.0 0.00 0.00 0.00 90 1019.8
20260901033550 75 0 0.0 0.0 0.00 0.00 0.00 90 1019.6
20260901033103 75 0 0.0 0.0 0.00 0.00 0.00 90 1019.6
20260901032552 75 0 0.0 0.0 0.00 0.00 0.00 90 1019.6
20260901032053 75 0 0.0 0.0 0.00 0.00 0.00 90 1019.7
20260901031610 75 0 0.0 0.0 0.00 0.00 0.00 90 1019.7
20260901031051 75 0 0.0 0.0 0.00 0.00 0.00 90 1019.7
20260901030637 75 0 0.0 0.0 0.00 0.00 0.00 89 1019.7
20260901030107 76 0 0.0 0.0 0.00 0.00 0.00 89 1019.7
20260901025552 76 0 0.0 0.0 0.00 0.00 0.00 89 1019.8
20260901025051 76 0 0.0 0.0 0.00 0.00 0.00 89 1019.6
20260901024609 76 0 0.0 0.0 0.00 0.00 0.00 89 1019.7
20260901024050 76 0 0.0 0.0 0.00 0.00 0.00 89 1019.7
20260901023551 76 0 0.0 0.0 0.00 0.00 0.00 89 1019.8
20260901023105 76 0 0.0 0.0 0.00 0.00 0.00 88 1019.8
20260901022554 76 0 0.0 0.0 0.00 0.00 0.00 88 1019.9
20260901022051 76 0 0.0 0.0 0.00 0.00 0.00 88 1019.9
20260901021602 77 0 0.0 0.0 0.00 0.00 0.00 88 1019.9
20260901021051 77 0 0.0 0.0 0.00 0.00 0.00 88 1019.9
20260901020552 77 0 0.0 0.0 0.00 0.00 0.00 87 1019.8
20260901020106 77 0 0.0 0.0 0.00 0.00 0.00 87 1019.8
20260901015551 77 0 0.0 0.0 0.00 0.00 0.00 87 1019.8
20260901015050 78 0 0.0 0.0 0.00 0.00 0.00 86 1019.8
20260901014605 78 0 0.0 0.0 0.00 0.00 0.00 86 1019.8
20260901014050 78 0 0.0 0.0 0.00 0.00 0.00 86 1019.7
20260901013550 78 0 0.0 0.0 0.00 0.00 0.00 86 1019.7
20260901013107 78 0 0.0 0.0 0.00 0.00 0.00 85 1019.7
20260901012550 78 0 0.0 0.0 0.00 0.00 0.00 85 1019.7
20260901012050 79 0 0.0 0.0 0.00 0.00 0.00 85 1019.7
20260901011605 79 0 0.0 0.0 0.00 0.00 0.00 85 1019.7
20260901011048 79 0 0.0 0.0 0.00 0.00 0.00 85 1019.7
20260901010554 79 0 0.0 0.0 0.00 0.00 0.00 85 1019.6
20260901010104 79 0 0.0 0.0 0.00 0.00 0.00 84 1019.7
20260901005550 80 0 0.0 0.0 0.00 0.00 0.00 85 1019.7
20260901005052 80 0 0.0 0.0 0.00 0.00 0.00 84 1019.8
20260901004609 80 0 0.0 0.0 0.00 0.00 0.00 84 1019.8
20260901004051 80 0 0.0 0.0 0.00 0.00 0.00 84 1019.6
20260901003549 80 0 0.0 0.0 0.00 0.00 0.00 84 1019.6
20260901003103 79 0 0.0 0.0 0.00 0.00 0.00 84 1019.6
20260901002549 79 0 0.0 0.0 0.00 0.00 0.00 83 1019.6
20260901002051 79 0 0.0 0.0 0.00 0.00 0.00 84 1019.6
20260901001609 79 0 0.0 0.0 0.00 0.00 0.00 84 1019.6
20260901001052 79 0 0.0 0.0 0.00 0.00 0.00 83 1019.4
20260901000552 79 0 0.0 0.0 0.00 0.00 0.00 83 1019.3
20260901000111 79 0 0.0 0.0 0.00 0.00 0.00 83 1019.2
20260831235557 80 0 0.0 0.0 0.00 0.00 0.00 83 1019.1
20260831235052 80 0 0.0 0.0 0.00 0.00 0.00 82 1019.1
20260831234631 80 0 0.0 0.0 0.00 0.00 0.00 83 1019.1
20260831234052 80 0 0.0 0.0 0.00 0.00 0.00 83 1019.1
20260831233551 81 0 0.0 0.0 0.00 0.00 0.00 82 1019.2
20260831233121 81 0 0.0 0.0 0.00 0.00 0.00 81 1019.2
20260831232553 81 0 0.0 0.0 0.00 0.00 0.00 81 1018.9
20260831232050 81 0 0.0 0.0 0.00 0.00 0.00 80 1018.9
20260831231601 82 0 0.0 0.0 0.00 0.00 0.00 79 1019.0
20260831231052 82 0 0.0 0.0 0.00 0.00 0.00 78 1019.0
20260831230553 82 0 0.0 0.0 0.00 0.00 0.00 78 1018.9
20260831230101 83 0 0.0 0.0 0.00 0.00 0.00 77 1018.9
20260831225552 83 0 0.0 0.0 0.00 0.00 0.00 77 1018.9
20260831225051 83 0 0.0 0.0 0.00 0.00 0.00 77 1018.8
20260831224604 84 0 0.0 0.0 0.00 0.00 0.00 77 1018.7
20260831224055 84 0 0.0 0.0 0.00 0.00 0.00 77 1018.8
20260831223551 84 0 0.0 0.0 0.00 0.00 0.00 76 1018.9
20260831223108 85 0 0.0 0.0 0.00 0.00 0.00 75 1018.9
20260831222552 85 0 0.0 0.0 0.00 0.00 0.00 75 1018.9
20260831222050 85 0 0.0 0.0 0.00 0.00 0.00 76 1018.8
20260831221605 86 0 0.0 0.0 0.00 0.00 0.00 75 1018.9
20260831221050 86 0 0.0 0.0 0.00 0.00 0.00 74 1018.9
20260831220554 86 0 0.0 0.0 0.00 0.00 0.00 72 1018.8
20260831220106 86 0 0.0 0.0 0.00 0.00 0.00 72 1018.8
20260831215550 87 0 0.0 0.0 0.00 0.00 0.00 71 1018.7
20260831215050 87 0 0.0 0.0 0.00 0.00 0.00 71 1018.6
20260831214608 87 0 0.0 0.0 0.00 0.00 0.00 70 1018.7
20260831214051 88 0 0.0 0.0 0.00 0.00 0.00 69 1018.6
20260831213556 88 0 0.0 0.0 0.00 0.00 0.00 67 1018.6
20260831213104 89 0 0.0 0.0 0.00 0.00 0.00 66 1018.6
20260831212553 89 0 0.0 0.0 0.00 0.00 0.00 65 1018.7
20260831212052 90 0 0.0 0.0 0.00 0.00 0.00 61 1018.7
20260831211608 90 0 0.0 0.0 0.00 0.00 0.00 66 1018.5
20260831211052 91 0 0.0 0.0 0.00 0.00 0.00 65 1018.6
20260831210550 91 0 0.0 0.0 0.00 0.00 0.00 63 1018.6
20260831210103 91 0 0.0 0.0 0.00 0.00 0.00 60 1018.5
20260831205550 91 0 0.0 0.0 0.00 0.00 0.00 62 1018.6
20260831205053 90 0 0.0 0.0 0.00 0.00 0.00 67 1018.6
20260831204610 90 0 0.0 0.0 0.00 0.00 0.00 66 1018.7